Dewpoint
44 44 45 46 46 46 44 39 29 37 45 33 32 26 27 29 27 35 34 36 30 29 32 30 28 26 26 30 30 25 30 32 25 25 29 29 28 27 29 27 25 29 27 26
44 45 45 46 46 46 40 35 33 38 42 27 26 29 26 26 25 34 34 34 35 31 27 28 33 33 34 36 29 29 31 30 26 25 26 28 26 27 28 31 29 26 25 26
44 44 45 46 46 46 41 34 27 32 33 34 33 27 25 24 27 26 32 35 33 33 33 31 29 33 36 38 32 41 35 33 26 18 19 25 26 27 28 29 27 26 27 26
44 45 44 44 46 46 42 35 29 29 25 25 26 28 30 26 24 30 37 37 33 32 32 32 30 30 35 38 41 40 35 31 32 28 26 26 25 24 27 27 27 26 26 25
44 44 44 44 44 46 41 32 30 30 25 29 26 23 23 24 22 28 34 37 35 31 30 30 27 29 35 35 39 37 37 31 32 28 30 28 27 26 24 24 24 23 24 23
43 43 44 44 44 44 40 38 35 31 26 25 26 25 27 25 25 26 32 31 37 35 30 32 32 36 39 38 38 37 36 34 32 28 31 30 29 28 27 27 28 27 25 27
42 43 43 43 44 44 42 40 35 30 25 26 24 22 23 26 30 26 28 37 38 36 37 35 38 38 37 37 39 39 37 34 32 29 29 25 30 32 31 30 30 30 28 29
42 42 43 43 43 44 42 42 37 31 25 25 25 25 26 27 28 25 30 30 39 39 38 35 33 34 35 35 36 38 37 35 32 30 27 28 28 31 29 28 27 31 29 34
44 43 43 43 43 44 42 41 41 35 29 25 24 24 25 26 28 30 30 37 33 39 38 35 32 30 31 29 31 37 37 37 34 30 27 26 28 30 34 30 25 33 35 39
44 44 44 44 44 44 42 41 42 37 31 29 28 26 25 27 27 28 33 37 36 40 39 35 33 31 30 27 27 31 32 32 29 28 26 28 32 34 34 25 25 41 41 41
45 45 45 44 44 44 42 41 44 38 33 31 30 30 31 30 30 29 33 38 39 40 37 35 34 29 31 28 27 30 31 30 30 30 26 24 33 35 27 34 43 42 41 41
44 44 45 45 44 44 43 39 43 43 36 34 34 34 34 33 35 36 34 35 39 41 39 35 33 29 29 31 28 32 28 32 31 32 31 36 42 39 41 43 42 41 40 39
44 44 44 45 45 44 44 41 41 40 35 34 35 35 36 40 38 41 36 39 41 40 41 36 34 30 33 31 31 31 34 36 34 33 39 40 40 40 41 41 41 42 42 41
43 43 43 43 44 44 45 41 42 40 36 31 31 37 34 38 41 43 42 40 40 40 40 34 33 32 34 32 34 33 35 37 35 37 40 40 40 41 41 42 42 42 42 42
44 44 44 44 44 44 44 43 43 42 36 30 27 36 39 41 42 41 42 42 40 40 35 33 33 33 34 34 34 32 37 37 36 34 40 39 40 40 38 37 37 40 41 41
44 43 44 45 44 43 40 33 41 43 40 33 29 34 36 38 40 41 40 41 42 39 36 33 33 36 36 34 32 35 38 39 40 39 41 41 42 40 39 38 37 38 39 41
44 43 45 45 45 42 35 34 39 43 41 34 30 28 35 37 39 40 38 38 37 36 34 33 34 35 37 32 32 34 38 39 42 42 41 40 40 37 40 39 39 39 37 35
44 44 44 43 44 42 40 43 43 42 37 35 29 28 32 37 33 32 37 33 34 33 32 33 33 34 33 32 33 35 38 39 40 39 32 32 36 35 35 35 35 34 34 34
43 44 42 39 38 34 39 44 44 43 38 32 31 29 28 36 32 33 33 35 29 33 31 32 34 31 30 33 32 32 30 31 33 35 35 35 35 35 35 34 34 32 32 32
42 41 36 32 37 44 42 37 34 33 33 33 27 32 30 34 32 31 31 32 29 27 30 33 30 30 34 32 32 33 32 34 34 33 33 33 33 34 34 34 34 34 33 33
38 35 33 39 42 37 34 30 30 30 30 32 32 32 30 35 29 28 31 29 29 25 28 28 27 27 31 34 35 35 35 34 35 35 34 34 33 33 33 33 33 32 32 31
38 38 38 37 33 30 28 28 31 30 28 32 31 32 33 33 34 31 29 28 28 24 30 26 23 28 34 34 34 34 34 34 34 34 34 34 34 34 33 31 30 30 30 29
35 31 28 28 27 25 26 23 27 28 31 33 33 30 33 32 31 28 27 22 21 27 16 20 24 31 33 33 32 31 32 32 33 34 34 33 32 32 31 30 29 29 26 24
27 25 23 26 26 28 30 29 30 31 33 33 31 28 28 28 27 27 22 27 26 17 10 19 25 30 31 31 31 30 30 31 32 31 31 30 30 29 29 28 28 24 20 16
26 26 23 27 30 31 31 31 30 30 32 30 29 29 29 26 25 27 25 21 19 21 20 23 30 30 30 30 29 29 29 30 30 30 29 28 28 28 27 27 26 24 23 18
29 28 23 24 28 30 26 26 26 31 28 30 29 25 24 24 25 22 20 20 18 21 25 26 31 30 30 29 29 29 29 30 30 30 29 28 28 27 25 20 17 14 15 12
28 23 23 22 25 28 30 25 27 31 28 25 26 21 23 25 22 21 25 20 23 23 28 31 31 30 30 30 29 29 30 30 30 29 28 28 26 23 18 17 18 17 16 12
Lifted_Index
8 8 7 6 6 6 6 7 8 7 5 5 6 8 10 9 7 6 5 4 3 3 2 2 2 3 3 3 3 3 3 2 2 1 2 3 3 3 3 2 2 2 1 1
7 7 6 6 5 5 6 7 7 6 5 4 5 7 9 9 8 7 5 4 4 3 2 2 2 3 3 3 2 2 2 2 1 1 1 2 2 2 2 2 2 1 1 1
6 6 5 5 4 4 5 6 6 5 4 4 4 5 7 9 9 8 5 4 4 3 2 2 2 2 2 2 2 1 1 1 1 1 1 1 1 1 2 2 1 1 1 1
5 5 5 4 4 4 4 4 5 5 4 4 4 4 5 7 8 7 5 3 3 3 3 3 3 2 2 2 1 1 0 0 1 1 1 1 1 1 1 1 1 1 1 1
5 4 4 4 4 3 3 3 3 4 3 3 3 3 4 6 7 7 5 3 3 3 3 3 3 2 2 2 1 0 -0 -0 0 1 1 0 1 1 1 1 1 1 1 1
5 5 4 4 4 3 2 2 2 3 3 2 2 3 4 5 7 7 5 4 3 3 3 3 3 2 2 1 1 0 -0 -0 -0 -0 -0 -0 0 1 1 1 1 1 1 1
6 5 5 4 4 3 2 2 2 2 2 2 2 2 3 4 5 6 6 5 4 3 2 3 3 2 2 1 1 1 0 -0 -0 -0 -0 -0 0 1 1 0 0 1 1 1
6 6 5 4 4 3 2 2 2 2 2 2 2 2 2 3 4 6 6 6 5 3 1 1 2 2 1 1 1 1 0 -0 -0 -0 -0 0 1 1 0 0 0 1 1 1
6 6 5 4 4 3 3 2 2 2 2 2 2 2 2 3 4 5 6 5 4 2 1 1 1 1 2 1 1 1 1 0 -0 -1 -0 1 1 0 -0 0 1 1 1 1
6 6 5 5 4 3 3 3 3 2 2 2 2 2 2 2 4 5 5 4 3 2 0 0 1 2 2 2 2 2 1 1 0 -0 0 1 1 1 0 0 1 1 1 1
6 6 5 5 4 4 3 3 2 2 2 2 2 1 1 2 3 4 4 2 1 1 -0 0 1 2 3 3 3 2 2 1 1 0 1 1 1 1 1 1 1 1 1 1
7 6 5 5 4 4 3 3 2 2 2 2 1 1 1 2 3 4 4 2 1 0 -0 0 1 2 3 3 3 2 2 1 1 1 1 1 1 1 1 1 1 1 1 1
7 7 6 5 5 4 4 3 3 2 2 2 1 1 2 3 4 5 5 4 3 1 1 1 1 2 3 3 2 2 2 2 1 1 2 2 1 1 1 1 1 1 1 1
7 7 7 6 5 4 4 4 3 3 2 1 1 2 2 3 4 5 6 6 5 3 1 1 1 2 2 3 3 2 2 2 2 1 2 2 2 2 2 1 1 1 1 1
7 7 7 6 6 5 4 4 3 3 2 1 2 2 3 3 4 5 6 5 4 2 1 1 1 1 2 3 3 3 3 2 2 2 2 2 2 2 2 2 2 2 2 2
7 7 7 5 5 5 5 4 4 3 2 2 2 3 4 4 5 5 5 4 3 2 1 0 1 1 2 2 3 3 3 2 2 2 2 2 2 2 2 3 3 4 4 5
8 7 6 5 5 5 6 5 4 3 3 3 3 4 5 5 5 5 4 3 2 1 1 1 1 2 2 2 3 3 3 2 2 2 2 2 2 2 3 4 5 7 8 8
8 7 6 5 5 5 5 5 4 4 4 4 4 4 5 5 5 4 3 2 2 2 1 1 2 2 2 3 2 2 2 2 2 2 2 3 3 4 5 7 8 9 9 9
7 7 6 6 5 5 5 4 5 5 5 5 5 4 5 5 4 3 2 2 2 2 2 2 2 2 3 3 3 2 2 2 3 3 3 4 5 6 7 8 9 9 9 10
6 6 6 6 6 6 5 5 5 5 5 5 5 5 5 4 4 3 2 2 2 2 2 2 2 2 3 3 3 3 3 4 5 5 5 7 8 9 9 10 10 10 10 10
6 6 6 7 7 6 4 4 4 4 5 5 5 4 4 4 3 3 3 2 2 2 2 2 2 2 3 4 5 5 6 7 7 8 8 9 10 11 11 11 11 11 11 11
7 7 7 7 6 5 3 3 3 4 4 5 4 4 4 5 4 4 3 3 2 3 3 2 2 4 5 7 7 8 8 9 9 10 10 11 12 12 12 12 12 12 12 12
7 7 6 6 6 4 3 3 4 4 5 5 5 4 5 6 6 5 4 4 4 4 3 3 4 6 8 8 9 9 9 9 10 11 11 12 12 12 12 12 12 12 12 13
7 7 6 6 5 5 5 5 5 5 6 6 6 6 6 7 7 7 6 5 5 5 4 5 6 8 8 9 8 9 9 10 10 11 12 12 12 12 12 12 12 12 13 13
7 7 6 6 6 6 6 6 6 6 6 6 6 6 7 7 7 7 7 7 6 6 6 7 7 7 8 8 8 8 9 10 10 11 11 11 12 12 12 12 12 12 12 12
7 7 6 6 6 6 6 6 6 6 6 6 6 6 7 7 7 7 7 7 6 7 7 7 7 6 6 6 7 7 8 9 10 10 10 10 11 11 11 11 12 11 11 11
7 7 7 6 6 5 5 5 5 6 6 6 6 6 6 7 7 7 7 7 7 7 7 7 6 6 6 6 6 7 8 9 9 10 10 10 11 11 11 11 10 11 11 11